STARLINK-35984 (66814 NORAD) Tracking and Keplerian Element Data

This shows tracking and keplerian element data for the satellite.

Feedback or suggestion? Click here.




ElementValue
Catalog66814
NameSTARLINK-35984
Epoch Orbit425
Epoch Day354.25003472
Epoch Year2025
RAAN206.3411
Inclination42.9992
Eccentricity0.0001503
Argument of Perigee256.3611
Mean Anonmoly19.9235
Mean Motion15.63545155
Decay Rate-0.0198637
L11 66814U 25278Z 25354.25003472 -.01986370 00000+0 -23675-1 0 9990
L22 66814 42.9992 206.3411 0001503 256.3611 19.9235 15.63545155 4252



Live tracking and technical data element details for STARLINK-35984 (NORAD 66814). STARLINK-35984 can be tracked NOW for your location showing map with azimuth and elevation plus other details from your city location.







IsCatalogInMostPopularTable: catalog: 66814, numindb: 20
Update: records affected: 1



GetName: 66814 STARLINK-35984

Hit Count: updated at: Tue, 21 Apr 2026 19:22:40 GMT